Flag for Canada Weather past 2 weeks in Kingston, Ontario, Canada

Now
10 °F

Passing clouds.


Feels Like: -4 °F
Forecast: -6 / 11 °F
Wind: 12 mph from Southwest

Location: Kingston

Current Time: Feb 27, 2015 at 12:35:50 PM

Latest Report: Feb 27, 2015 at 12:00 PM


Visibility: 15 mi

Pressure: 30.48 "Hg

Humidity: 47%

Dew point: -6 °F

Location of KingstonLocation

Historic Weather in Kingston — Graph

°F

Kingston temperature yesterday

Maximum temperature yesterday: 10 °F (at 1:00 PM)
Minimum temperature yesterday: 0 °F (at 6:00 AM)
Average temperature yesterday: 6 °F

Past Weeks' High & Low Weather Summary

 TemperatureHumidityPressure
High25 °F (Feb 21, 9:48 PM)93% (Feb 14, 8:00 AM)30.51 "Hg (Feb 14, 8:00 AM)
Low-17 °F (Feb 16, 8:00 AM)36% (Feb 17, 1:00 PM)29.52 "Hg (Feb 14, 2:00 PM)
Average6 °F66%30.07 "Hg
* Reported Feb 12 11:00 AM — Feb 27 11:00 AM, Kingston, Weather by CustomWeather, © 2015

Note: Actual official high and low records may vary slightly from our data, if they occured in-between our weather recording intervals... More about our weather records

Advertising

Kingston weather history for previous 24 hours

 ConditionsComfort  
Time TempWeatherWind HumidityBarometerVisibility
11:00 AM
Fri, Feb 27
9 °FPassing clouds.6 mph47%30.47 "Hg15 mi
10:00 AM7 °FPassing clouds.2 mph47%30.46 "Hg15 mi
9:00 AM-2 °FPassing clouds.6 mph59%30.45 "Hg15 mi
8:00 AM-8 °FPassing clouds.8 mph70%30.42 "Hg15 mi
7:00 AM-13 °FPassing clouds.10 mph76%30.39 "Hg15 mi
6:00 AM-11 °FPassing clouds.6 mph76%30.37 "Hg15 mi
11:00 PM
Thu, Feb 26
0 °FPassing clouds.3 mph65%30.26 "Hg15 mi
10:00 PM3 °FPassing clouds.2 mph60%30.25 "Hg15 mi
9:00 PM5 °FPassing clouds.No wind55%30.24 "Hg15 mi
8:00 PM9 °FPassing clouds.2 mph51%30.22 "Hg15 mi
7:00 PM9 °FOvercast.3 mph51%30.20 "Hg15 mi
6:00 PM10 °FPassing clouds.5 mph47%30.18 "Hg15 mi
5:00 PM10 °FPartly sunny.3 mph44%30.17 "Hg15 mi
4:00 PM10 °FMostly cloudy.7 mph44%30.15 "Hg15 mi
3:00 PM10 °FMostly cloudy.10 mph44%30.14 "Hg15 mi
2:00 PM10 °FOvercast.7 mph47%30.14 "Hg15 mi
1:00 PM10 °FOvercast.9 mph40%30.17 "Hg15 mi
12:00 PM9 °FOvercast.8 mph43%30.18 "Hg15 mi
Weather by CustomWeather, © 2015

See weather overviewHow to use our weather pages